DW3766 Weather Reports


Display with metric or nautical units.
time (UTC)temp
F
wind
direction
speed
MPH
gust
MPH
rain 1hr
in
rain 24hr
in
rain mn
in
humidity
%
barometer
mb
20260509124637 72 319 2.0 5.0 0.00 0.00 0.00 96 1011.2
20260509124208 72 306 3.0 5.0 0.00 0.00 0.00 96 1011.2
20260509123633 72 61 0.0 2.0 0.00 0.00 0.00 96 1011.1
20260509123205 72 60 0.0 4.0 0.00 0.00 0.00 96 1011.0
20260509122632 72 85 1.0 6.0 0.00 0.00 0.00 96 1011.0
20260509122137 72 42 1.0 6.0 0.00 0.00 0.00 96 1011.2
20260509121711 72 76 2.0 7.0 0.00 0.00 0.00 95 1011.2
20260509121113 72 24 4.0 7.0 0.00 0.00 0.00 95 1011.4
20260509120636 72 11 5.0 7.0 0.00 0.00 0.00 95 1011.3
20260509120206 72 44 3.0 6.0 0.00 0.00 0.00 95 1011.2
20260509115635 72 65 3.0 6.0 0.00 0.00 0.00 95 1011.1
20260509115205 72 342 1.0 5.0 0.00 0.00 0.00 95 1011.3
20260509114709 72 44 2.0 4.0 0.00 0.00 0.00 95 1011.2
20260509114141 72 48 0.0 6.0 0.00 0.00 0.00 95 1011.3
20260509113707 72 36 3.0 6.0 0.00 0.00 0.00 95 1011.3
20260509113140 72 10 1.0 5.0 0.00 0.00 0.00 95 1011.4
20260509112707 72 10 3.0 5.0 0.00 0.00 0.00 95 1011.5
20260509112131 72 40 2.0 6.0 0.00 0.00 0.00 95 1011.5
20260509111644 72 342 3.0 6.0 0.00 0.00 0.00 95 1011.5
20260509111207 72 9 3.0 6.0 0.00 0.00 0.00 95 1011.5
20260509110646 72 17 3.0 5.0 0.00 0.00 0.00 95 1011.3
20260509110149 72 17 2.0 4.0 0.00 0.00 0.00 95 1011.2
20260509105715 72 40 1.0 2.0 0.00 0.00 0.00 95 1011.0
20260509105227 72 82 1.0 4.0 0.00 0.00 0.00 95 1010.8
20260509104730 72 82 1.0 7.0 0.00 0.00 0.00 95 1010.8
20260509104142 72 87 3.0 7.0 0.00 0.00 0.00 95 1010.7
20260509103709 72 100 2.0 5.0 0.00 0.00 0.00 95 1010.7
20260509103140 72 84 2.0 4.0 0.00 0.00 0.00 95 1010.9
20260509102704 72 66 0.0 2.0 0.00 0.00 0.00 95 1011.0
20260509102129 72 94 0.0 0.0 0.00 0.00 0.00 95 1011.0
20260509101702 72 94 0.0 2.0 0.00 0.00 0.00 95 1011.0
20260509101131 72 94 0.0 2.0 0.00 0.00 0.00 95 1010.9
20260509100705 72 75 0.0 2.0 0.00 0.00 0.00 95 1010.8
20260509100228 72 75 0.0 4.0 0.00 0.00 0.00 95 1010.6
20260509095617 72 75 1.0 3.0 0.00 0.00 0.00 95 1010.4
20260509095204 72 57 0.0 4.0 0.00 0.00 0.00 94 1010.3
20260509094629 72 57 1.0 4.0 0.00 0.00 0.00 94 1010.3
20260509094159 72 28 2.0 5.0 0.00 0.00 0.00 94 1010.4
20260509093626 72 59 3.0 5.0 0.00 0.00 0.00 94 1010.3
20260509093138 72 40 3.0 5.0 0.00 0.00 0.00 94 1010.1
20260509092704 72 51 3.0 5.0 0.00 0.00 0.00 94 1010.1
20260509092129 72 61 2.0 4.0 0.00 0.00 0.00 94 1010.2
20260509091704 72 83 1.0 4.0 0.00 0.00 0.00 94 1010.2
20260509091128 72 114 0.0 0.0 0.00 0.00 0.00 94 1010.1
20260509090702 72 114 0.0 0.0 0.00 0.00 0.00 94 1010.0
20260509090132 72 114 0.0 0.0 0.00 0.00 0.00 94 1010.1
20260509085138 72 114 0.0 0.0 0.00 0.00 0.00 93 1010.0
20260509084703 72 114 0.0 0.0 0.00 0.00 0.00 93 1010.1
20260509084135 72 114 0.0 0.0 0.00 0.00 0.00 93 1010.1
20260509083701 72 114 0.0 0.0 0.00 0.00 0.00 93 1010.1
20260509083134 72 114 0.0 2.0 0.00 0.00 0.00 93 1010.1
20260509082700 72 114 0.0 2.0 0.00 0.00 0.00 93 1010.2
20260509082136 72 114 0.0 0.0 0.00 0.00 0.00 93 1010.3
20260509081704 72 114 0.0 2.0 0.00 0.00 0.00 93 1010.4
20260509081133 72 114 1.0 2.0 0.00 0.00 0.00 93 1010.3
20260509080638 72 88 1.0 4.0 0.00 0.00 0.00 93 1010.4
20260509080153 72 88 1.0 4.0 0.00 0.00 0.00 93 1010.3
20260509075616 72 111 1.0 4.0 0.00 0.00 0.00 92 1010.1
20260509075141 72 111 1.0 5.0 0.00 0.00 0.00 92 1010.0
20260509074614 72 123 2.0 5.0 0.00 0.00 0.00 92 1010.0
20260509074141 72 135 3.0 5.0 0.00 0.00 0.00 92 1010.1
20260509073616 72 140 2.0 4.0 0.00 0.00 0.00 92 1010.2
20260509073142 72 140 1.0 3.0 0.00 0.00 0.00 92 1010.1
20260509072615 72 141 1.0 4.0 0.00 0.00 0.00 92 1010.1
20260509072119 72 141 1.0 4.0 0.00 0.00 0.00 92 1010.1
20260509071654 72 106 1.0 2.0 0.00 0.00 0.00 92 1010.0
20260509071115 72 174 0.0 5.0 0.00 0.00 0.00 91 1010.0
20260509070641 72 209 3.0 5.0 0.00 0.00 0.00 91 1010.2
20260509070114 72 188 0.0 4.0 0.00 0.00 0.00 91 1010.2
20260509065619 72 188 1.0 5.0 0.00 0.00 0.00 91 1010.3
20260509065117 72 215 2.0 5.0 0.00 0.00 0.00 91 1010.3
20260509064642 72 138 0.0 2.0 0.00 0.00 0.00 91 1010.2
20260509064145 72 169 0.0 5.0 0.00 0.00 0.00 91 1010.2
20260509063628 72 159 1.0 7.0 0.00 0.00 0.00 91 1010.2
20260509063125 72 167 4.0 8.0 0.00 0.00 0.00 91 1010.3
20260509062649 72 158 4.0 8.0 0.00 0.00 0.00 91 1010.3
20260509062132 72 176 5.0 6.0 0.00 0.00 0.00 91 1010.4
20260509061629 72 185 3.0 6.0 0.00 0.00 0.00 91 1010.3
20260509061135 72 161 3.0 7.0 0.00 0.00 0.00 91 1010.4
20260509060638 72 176 5.0 7.0 0.00 0.00 0.00 91 1010.4
20260509060114 72 166 2.0 6.0 0.00 0.00 0.00 90 1010.4
20260509055617 72 157 3.0 5.0 0.00 0.00 0.00 90 1010.6
20260509055142 72 146 2.0 4.0 0.00 0.00 0.00 90 1010.6
20260509054646 72 159 1.0 4.0 0.00 0.00 0.00 90 1010.8
20260509054124 72 168 2.0 6.0 0.00 0.00 0.00 90 1010.8
20260509053627 72 146 3.0 6.0 0.00 0.00 0.00 90 1010.7
20260509053132 71 150 2.0 5.0 0.00 0.00 0.00 90 1010.8
20260509052630 71 167 1.0 5.0 0.00 0.00 0.00 90 1011.0
20260509052135 71 167 2.0 5.0 0.00 0.00 0.00 90 1011.0
20260509051632 70 168 1.0 5.0 0.00 0.00 0.00 90 1011.0
20260509051117 70 167 3.0 5.0 0.00 0.00 0.00 89 1011.1
20260509050614 70 163 1.0 6.0 0.00 0.00 0.00 89 1011.1
20260509050136 70 155 1.0 2.0 0.00 0.00 0.00 88 1011.1
20260509045613 70 155 0.0 1.0 0.00 0.00 0.00 88 1011.0
20260509045118 70 156 0.0 2.0 0.00 0.00 0.00 88 1010.9
20260509044652 70 155 0.0 2.0 0.00 0.00 0.00 88 1010.8
20260509044115 70 155 1.0 2.0 0.00 0.00 0.00 87 1010.6
20260509043650 70 155 1.0 2.0 0.00 0.00 0.00 87 1010.5
20260509043115 70 156 1.0 2.0 0.00 0.00 0.00 87 1010.5
20260509042637 69 155 1.0 2.0 0.00 0.00 0.00 86 1010.5
20260509042148 69 155 1.0 2.0 0.00 0.00 0.00 85 1010.4
20260509041714 69 155 0.0 2.0 0.00 0.00 0.00 85 1010.2
20260509041227 70 155 1.0 2.0 0.00 0.00 0.00 85 1010.1
20260509040632 70 112 0.0 0.0 0.00 0.00 0.00 85 1010.0
20260509040203 70 112 0.0 1.0 0.00 0.00 0.00 85 1010.0
20260509035729 70 111 0.0 2.0 0.00 0.00 0.00 84 1010.0
20260509035144 70 111 0.0 2.0 0.00 0.00 0.00 84 1010.1
20260509034709 71 112 0.0 1.0 0.00 0.00 0.00 84 1010.1
20260509034140 71 111 0.0 0.0 0.00 0.00 0.00 84 1010.2
20260509033646 71 111 0.0 0.0 0.00 0.00 0.00 84 1010.2
20260509033155 71 111 0.0 0.0 0.00 0.00 0.00 84 1010.1
20260509032721 71 112 0.0 1.0 0.00 0.00 0.00 84 1010.1
20260509032132 72 111 0.0 2.0 0.00 0.00 0.00 84 1010.1
20260509031658 72 112 1.0 2.0 0.00 0.00 0.00 84 1010.1
20260509031124 72 111 0.0 0.0 0.00 0.00 0.00 83 1010.2
20260509030657 72 112 0.0 0.0 0.00 0.00 0.00 83 1010.1
20260509030223 72 111 0.0 1.0 0.00 0.00 0.00 83 1010.0
20260509025637 72 112 0.0 2.0 0.00 0.00 0.00 83 1010.0
20260509025203 72 111 1.0 2.0 0.00 0.00 0.00 82 1010.0
20260509024731 72 111 1.0 2.0 0.00 0.00 0.00 82 1010.0
20260509024134 73 111 0.0 2.0 0.00 0.00 0.00 81 1009.9
20260509023709 73 111 0.0 2.0 0.00 0.00 0.00 81 1009.9
20260509023134 73 112 1.0 2.0 0.00 0.00 0.00 81 1009.9
20260509022708 73 111 1.0 2.0 0.00 0.00 0.00 81 1009.9
20260509022134 73 111 0.0 2.0 0.00 0.00 0.00 81 1009.8
20260509021708 73 112 1.0 2.0 0.00 0.00 0.00 80 1009.5
20260509021133 74 111 1.0 1.0 0.00 0.00 0.00 80 1009.4
20260509020707 74 112 0.0 1.0 0.00 0.00 0.00 79 1009.4
20260509020113 74 111 0.0 2.0 0.00 0.00 0.00 79 1009.2
20260509015637 74 111 0.0 2.0 0.00 0.00 0.00 79 1009.1
20260509015207 74 111 0.0 2.0 0.00 0.00 0.00 79 1009.0
20260509014730 74 111 1.0 2.0 0.00 0.00 0.00 78 1009.0
20260509014141 74 111 0.0 2.0 0.00 0.00 0.00 78 1009.0
20260509013707 74 111 0.0 1.0 0.00 0.00 0.00 78 1008.9
20260509013118 75 112 0.0 4.0 0.00 0.00 0.00 78 1008.9
20260509012643 75 111 1.0 4.0 0.00 0.00 0.00 78 1008.7
20260509012116 75 112 2.0 4.0 0.00 0.00 0.00 77 1008.6
20260509011642 75 111 1.0 4.0 0.00 0.00 0.00 77 1008.7
20260509011119 75 111 1.0 4.0 0.00 0.00 0.00 77 1008.8
20260509010645 75 118 1.0 4.0 0.00 0.00 0.00 76 1008.8
20260509010119 75 134 1.0 4.0 0.00 0.00 0.00 76 1008.8
20260509005642 75 134 1.0 4.0 0.00 0.00 0.00 76 1008.8
20260509005212 75 124 2.0 6.0 0.00 0.00 0.00 75 1008.7
20260509004637 75 143 2.0 6.0 0.00 0.00 0.00 75 1008.7
20260509004141 76 157 4.0 6.0 0.00 0.00 0.00 75 1008.6
20260509003613 76 100 2.0 5.0 0.00 0.00 0.00 75 1008.7
20260509003138 76 128 2.0 5.0 0.00 0.00 0.00 75 1008.7
20260509002711 76 136 1.0 4.0 0.00 0.00 0.00 75 1008.7
20260509002139 76 128 1.0 3.0 0.00 0.00 0.00 74 1008.7
20260509001705 76 141 1.0 4.0 0.00 0.00 0.00 74 1008.7
20260509001137 76 175 0.0 4.0 0.00 0.00 0.00 74 1008.8
20260509000643 76 175 1.0 4.0 0.00 0.00 0.00 74 1008.8
20260509000146 76 160 2.0 6.0 0.00 0.00 0.00 74 1008.8
20260508235659 76 177 2.0 5.0 0.00 0.00 0.00 74 1008.8
20260508235126 76 129 2.0 5.0 0.00 0.00 0.00 74 1008.9
20260508234658 76 146 2.0 5.0 0.00 0.00 0.00 74 1008.9
20260508234138 76 125 2.0 5.0 0.00 0.00 0.00 74 1008.9
20260508233709 76 128 3.0 7.0 0.00 0.00 0.00 74 1008.9
20260508233114 76 130 2.0 5.0 0.00 0.00 0.00 74 1008.9
20260508232646 76 129 2.0 6.0 0.00 0.00 0.00 74 1008.8
20260508232209 76 143 1.0 7.0 0.00 0.00 0.00 74 1008.8
20260508231645 76 145 3.0 8.0 0.00 0.00 0.00 75 1008.8
20260508231209 76 175 3.0 8.0 0.00 0.00 0.00 75 1008.7
20260508230641 76 182 4.0 8.0 0.00 0.00 0.00 75 1008.8
20260508230207 76 161 3.0 6.0 0.00 0.00 0.00 75 1008.8
20260508225632 76 128 4.0 6.0 0.00 0.00 0.00 75 1008.8
20260508225204 76 145 3.0 7.0 0.00 0.00 0.00 75 1008.9
20260508224629 76 160 3.0 8.0 0.00 0.00 0.00 75 1008.9
20260508224201 76 181 4.0 9.0 0.00 0.00 0.00 74 1008.9
20260508223626 76 129 4.0 10.0 0.00 0.00 0.00 74 1008.9
20260508223201 76 127 5.0 10.0 0.00 0.00 0.00 74 1008.9
20260508222626 76 114 5.0 8.0 0.00 0.00 0.00 75 1008.9
20260508222159 76 128 6.0 10.0 0.00 0.00 0.00 75 1009.0
20260508221704 76 175 5.0 10.0 0.00 0.00 0.00 75 1009.1
20260508221133 76 158 4.0 8.0 0.00 0.00 0.00 75 1009.0
20260508220658 76 160 5.0 8.0 0.00 0.00 0.00 75 1009.0
20260508220123 76 197 5.0 9.0 0.00 0.00 0.00 75 1009.1
20260508215657 75 179 6.0 9.0 0.00 0.00 0.00 75 1009.2
20260508215222 75 183 5.0 8.0 0.00 0.00 0.00 75 1009.2
20260508214633 75 140 4.0 8.0 0.00 0.00 0.00 75 1009.2
20260508214159 75 162 6.0 8.0 0.00 0.00 0.00 75 1009.3
20260508213636 75 153 3.0 9.0 0.00 0.00 0.00 75 1009.3
20260508213140 76 137 5.0 9.0 0.00 0.00 0.00 74 1009.4
20260508212630 76 152 5.0 9.0 0.00 0.00 0.00 74 1009.4
20260508212156 76 192 5.0 9.0 0.00 0.00 0.00 74 1009.5
20260508211629 76 163 4.0 9.0 0.00 0.00 0.00 73 1009.6
20260508211156 76 189 6.0 9.0 0.00 0.00 0.00 74 1009.7
20260508210629 76 209 2.0 8.0 0.00 0.00 0.00 74 1009.8
20260508210155 76 176 4.0 8.0 0.00 0.00 0.00 75 1009.7
20260508205644 76 96 4.0 7.0 0.00 0.00 0.00 75 1009.8
20260508205206 75 142 2.0 6.0 0.00 0.00 0.00 76 1009.8
20260508204632 75 90 4.0 7.0 0.00 0.00 0.00 75 1009.9
20260508204138 75 121 5.0 7.0 0.00 0.00 0.00 75 1010.0
20260508203615 75 133 3.0 7.0 0.00 0.00 0.00 77 1009.9
20260508203141 75 136 1.0 7.0 0.00 0.00 0.00 77 1010.0
20260508202614 74 81 3.0 7.0 0.00 0.00 0.00 77 1009.9
20260508201642 74 85 4.0 8.0 0.00 0.00 0.00 76 1010.1
20260508201143 74 92 4.0 8.0 0.00 0.00 0.00 76 1010.2
20260508200616 74 96 6.0 8.0 0.00 0.00 0.00 76 1010.2
20260508200142 74 94 2.0 7.0 0.00 0.00 0.00 77 1010.2
20260508195620 74 86 4.0 8.0 0.00 0.00 0.00 76 1010.4
20260508195145 74 107 4.0 8.0 0.00 0.00 0.00 76 1010.4
20260508194615 74 138 4.0 10.0 0.00 0.00 0.00 77 1010.4
20260508194139 74 138 5.0 10.0 0.00 0.00 0.00 77 1010.5
20260508193645 74 115 5.0 9.0 0.00 0.00 0.00 77 1010.6
20260508193158 73 117 5.0 11.0 0.00 0.00 0.00 77 1010.7
20260508192624 73 130 5.0 11.0 0.00 0.00 0.00 77 1010.7
20260508192155 73 137 6.0 9.0 0.00 0.00 0.00 77 1010.7
20260508191617 74 155 5.0 10.0 0.00 0.00 0.00 77 1010.7
20260508191143 74 90 6.0 10.0 0.00 0.00 0.00 77 1010.8
20260508190620 74 131 5.0 9.0 0.00 0.00 0.00 76 1010.9
20260508190147 73 108 5.0 9.0 0.00 0.00 0.00 76 1010.9
20260508185618 73 132 4.0 7.0 0.00 0.00 0.00 76 1010.9
20260508185144 73 96 2.0 8.0 0.00 0.00 0.00 77 1011.0
20260508184718 73 163 3.0 8.0 0.00 0.00 0.00 77 1010.9
20260508184122 73 150 5.0 7.0 0.00 0.00 0.00 76 1011.0
20260508183654 72 107 4.0 7.0 0.00 0.00 0.00 76 1011.1
20260508183119 72 172 3.0 7.0 0.00 0.00 0.00 76 1011.2
20260508182643 72 133 2.0 5.0 0.00 0.00 0.00 76 1011.4
20260508182114 72 116 2.0 6.0 0.00 0.00 0.00 76 1011.5
20260508181619 72 109 3.0 6.0 0.00 0.00 0.00 76 1011.6
20260508181152 72 146 3.0 6.0 0.00 0.00 0.00 76 1011.7
20260508180651 72 119 3.0 5.0 0.00 0.00 0.00 75 1011.8
20260508180203 72 148 2.0 6.0 0.00 0.00 0.00 75 1011.9
20260508175632 72 158 2.0 6.0 0.00 0.00 0.00 75 1011.9
20260508175205 72 98 2.0 6.0 0.00 0.00 0.00 75 1012.0
20260508174710 72 112 4.0 6.0 0.00 0.00 0.00 75 1012.0
20260508174140 72 96 3.0 6.0 0.00 0.00 0.00 76 1012.0
20260508173625 72 155 2.0 5.0 0.00 0.00 0.00 76 1012.0
20260508173150 71 128 1.0 6.0 0.00 0.00 0.00 77 1012.0
20260508172703 71 155 1.0 5.0 0.00 0.00 0.00 77 1012.1
20260508172128 71 158 1.0 6.0 0.00 0.00 0.00 78 1012.1
20260508171700 70 196 2.0 6.0 0.00 0.00 0.00 78 1012.1
20260508171227 70 161 3.0 5.0 0.00 0.00 0.00 79 1012.1
20260508170631 69 207 1.0 4.0 0.00 0.00 0.00 79 1012.1
20260508170206 69 269 1.0 4.0 0.00 0.00 0.00 80 1012.2
20260508165634 68 218 2.0 4.0 0.00 0.00 0.00 81 1012.2
20260508165126 68 38 1.0 4.0 0.00 0.00 0.00 81 1012.2
20260508164652 67 211 1.0 4.0 0.00 0.00 0.00 82 1012.3
20260508164125 67 38 0.0 1.0 0.00 0.00 0.00 83 1012.3
20260508163652 66 140 0.0 4.0 0.00 0.00 0.00 83 1012.4
20260508163142 66 136 1.0 4.0 0.00 0.00 0.00 83 1012.5
20260508162707 66 133 0.0 4.0 0.00 0.00 0.00 83 1012.5
20260508162138 66 115 2.0 4.0 0.00 0.00 0.00 83 1012.6
20260508161705 66 328 1.0 3.0 0.00 0.00 0.00 83 1012.7
20260508161137 66 323 0.0 5.0 0.00 0.00 0.00 84 1012.9
20260508160641 65 269 1.0 5.0 0.00 0.00 0.00 84 1013.0
20260508160205 65 335 3.0 6.0 0.00 0.00 0.00 84 1013.2
20260508155640 65 349 3.0 6.0 0.00 0.00 0.00 84 1013.3
20260508155205 64 315 2.0 5.0 0.00 0.00 0.00 84 1013.4
20260508154638 64 9 3.0 5.0 0.00 0.00 0.00 84 1013.5
20260508154201 64 17 2.0 5.0 0.00 0.00 0.00 84 1013.4
20260508153627 63 320 0.0 4.0 0.00 0.00 0.00 84 1013.6
20260508153200 63 360 1.0 2.0 0.00 0.00 0.00 84 1013.7
20260508152624 63 93 0.0 5.0 0.00 0.00 0.00 84 1013.9
20260508152158 63 93 1.0 6.0 0.00 0.00 0.00 84 1013.8
20260508151626 63 84 4.0 6.0 0.00 0.00 0.00 84 1013.8
20260508151159 63 96 1.0 5.0 0.00 0.00 0.00 84 1013.8
20260508150624 63 120 2.0 4.0 0.00 0.00 0.00 84 1013.9
20260508150137 63 113 0.0 5.0 0.00 0.00 0.00 84 1013.8
20260508145702 63 53 1.0 5.0 0.00 0.00 0.00 84 1013.9
20260508145135 63 94 2.0 5.0 0.00 0.00 0.00 83 1013.9
20260508144619 63 65 3.0 5.0 0.00 0.00 0.00 83 1013.8
20260508144151 63 72 1.0 8.0 0.00 0.00 0.00 83 1014.0
20260508143616 63 44 3.0 8.0 0.00 0.00 0.00 82 1014.0
20260508143141 62 88 2.0 6.0 0.00 0.00 0.00 82 1014.1
20260508142618 62 80 3.0 6.0 0.00 0.00 0.00 82 1014.1
20260508142145 62 108 1.0 4.0 0.00 0.00 0.00 81 1014.2
20260508141658 62 40 0.0 2.0 0.00 0.00 0.00 81 1014.2
20260508141223 62 40 1.0 5.0 0.00 0.00 0.00 81 1014.0
20260508140634 62 355 3.0 5.0 0.00 0.00 0.00 81 1013.9
20260508140200 62 30 3.0 5.0 0.00 0.00 0.00 81 1013.9
20260508135633 62 22 0.0 2.0 0.00 0.00 0.00 81 1013.8
20260508135159 62 22 1.0 4.0 0.00 0.00 0.00 81 1013.8
20260508134629 62 44 2.0 3.0 0.00 0.00 0.00 81 1013.8
20260508134154 62 59 1.0 2.0 0.00 0.00 0.00 81 1013.8
20260508133620 61 45 1.0 4.0 0.00 0.00 0.00 81 1013.6
20260508133153 61 28 2.0 4.0 0.00 0.00 0.00 81 1013.7
20260508132622 61 51 1.0 3.0 0.00 0.00 0.00 81 1013.8
20260508132155 61 46 2.0 6.0 0.00 0.00 0.00 81 1013.9
20260508131620 61 43 4.0 7.0 0.00 0.00 0.00 81 1013.9
20260508131154 61 32 5.0 7.0 0.00 0.00 0.00 81 1013.8
20260508130619 61 21 3.0 6.0 0.00 0.00 0.00 81 1013.8
20260508130152 61 55 3.0 6.0 0.00 0.00 0.00 81 1013.7
20260508125616 61 69 4.0 6.0 0.00 0.00 0.00 81 1013.8
20260508125143 61 96 2.0 5.0 0.00 0.00 0.00 81 1014.0